(493285) = 2014 UC162

Discovered at Kitt Peak on 2003-09-21 by Spacewatch.

Orbit

Orbit type: Main Belt

Note: WebGL enabled browser required.

epoch2023-02-25.0
epoch JD2460000.5
perihelion date2019-09-24.87394
perihelion JD2458751.37394
argument of perihelion (°)145.17048
ascending node (°)224.81097
inclination (°)15.96097
eccentricity0.0660911
perihelion distance (AU)2.8594894
Tisserand w.r.t. Jupiter3.2
ΔV w.r.t. Earth (km/sec)11.6
semimajor axis (AU)3.0618503
mean anomaly (°)229.79162
mean daily motion (°/day)0.18396190
aphelion distance (AU)3.264
period (years)5.36
P-vector [x]0.96934648
P-vector [y]0.11088591
P-vector [z]0.21925265
Q-vector [x]-0.15102721
Q-vector [y]0.97278423
Q-vector [z]0.17573166
absolute magnitude16.77
phase slope0.15
uncertainty0
referenceMPO 745323
observations used121
oppositions9
arc length (days)7213
first opposition used2003
last opposition used2023
residual rms (arc-secs)0.54
perturbers coarse indicatorM-v
perturbers precise indicator003Ek
first observation date used2003-09-21.0
last observation date used2023-06-21.0
computer nameMPCLINUX
Minimum Orbit Intersection Distances (in AU)
for orbit epoch: 2460000.5, reference: E2023-M85
Mercury2.52034
Venus2.15007
Earth1.8738
Mars1.42784
Jupiter2.09134
Saturn6.11838
Uranus15.2871
Neptune26.9837

Observations

122 total observations over interval: 2003 09 21.46272 – 2023 06 21.411101
These data are available for download (format description).

